Погода в Исити

Погода в Исити : погода сейчас, прогноз погоды и архив. Всё, что Вы хотите узнать о погоде в Исити!

Хотите узнать прогноз погоды в Исити? Тогда Вам сюда: Погода в Исити

Поиск расширенной информации на нашем сайте:

Другие новости

Новости СМИ2

Главная страница сайта

Новости сайта

03.07.2017

Напоминаем, что на нашем специализированном сайте Метеоцентр.Азия вы можете получить высокодетализированные автоматические прогнозы погоды по пунктам России, СНГ и мира в авиационном формате (включающие направление и скорость ветра, видимость, явления погоды, количество и форму облачности, нижнюю и верхнюю границу облачности).

Рекомендуем: Летняя и зимняя спецодежда оптом противогазы и озк москва.

Погода в Исити - сегодня

Время (UTC), дата Ветер
(°,м/с) 
Видим.   Явления Облачность Т
(°С)
Тd
(°С)
f(%) Тe
(°С)
Pmin
(гПа)
dP
(гПа)
Po
(мм)
O2
(г/м3)
Тmin Tmax R s Состояние
почвы
06 20.08.17 180 (Ю) 20000 м  дым  ясно 
+20.5 +12.8 61 +26  1014  -1.8  749  278           
09 20.08.17 090 (В) 20000 м  дым  3/3 1000 м кучево-дожд. 
[Cb calv]
+20.5 +12.3 59 +25  1013.2  -0.8  748  278           
12 20.08.17 350 (С) 20000 м  дым  4/0 средняя, верхняя 
[Ac trans|Ci fib]
+16.4 +12.8 79 +22  1013.2  -0.2  748  282    +21.6       
15 20.08.17 050 (СВ) 20000 м  дым  ясно 
+12.4 +11.3 93 +17  1013.4  -0.1  748  286           
21 20.08.17 070 (В) 20000 м  дым  3/0 верхняя 
[Ci fib]
+11 +7.5 79 +11  1012.2  -1  747  288           
00 21.08.17 120 (ЮВ) 20000 м    ясно 
+14 +10.4 79 +16  1010.6  -1.9  746  284  +9.8        влажная 
03 21.08.17 100 (В) 20000 м    6/0 верхняя 
[Ci fib]
+19.5 +11.1 58 +23  1007.2  -1  744  278           
06 21.08.17 090 (В) 20000 м    10/0 средняя 
[As op]
+19.9 +11 56 +24  1004.8  -2.4  742  277           
09 21.08.17 040 (СВ) 20000 м    10/0 средняя 
[Ac As]
+19.6 +8.3 48 +21  1002.7  -2.1  741  277           
12 21.08.17 070 (В) 20000 м    10/6 1000 м средняя 
[Sc|As op]
+18.6 +4.7 40 +19  1002  -0.7  740  278    +20.5       
15 21.08.17 040 (СВ) 20000 м    10/10 1000 м 
[Sc]
+17.2 +7.5 53 +17  999.4  -2.6  738  279           
18 21.08.17 030 (СВ) 20000 м  слаб. дождь  10/10 1000 м 
[Sc]
+16.4 +9.7 65 +18  997.5  -1.9  737  278           
21 21.08.17 040 (СВ) 20000 м  слаб. дождь  10/3 1000 м средняя 
[Sc|Ac As]
+14.8 +10 73 +17  996  -1.6  736  279           
00 22.08.17 050 (СВ) 20000 м  в посл. час дождь  10/3 1000 м средняя 
[Sc|Ac As]
+12.9 +11.2 89 +16  995.4  -0.7  735  281  +12.7      мокрая 
03 22.08.17 020 (С) 20000 м    10/4 1000 м средняя 
[Sc|Ac As]
+15.5 +12 80 +20  994.5  -0.7  734  278           
06 22.08.17 090 (В) 20000 м    10/0 средняя 
[Ac As]
+17.2 +13.3 78 +24  994.3  -0.1  734  276           
09 22.08.17 050 (СВ) 20000 м  дым  9/6 1000 м кучево-дожд., средняя 
[Cb calv|Ac As]
+18.5 +14.2 76 +28  994.1  -0.2  734  274           
12 22.08.17 270 (З) 20000 м  {ливн. осадки}  10/10 1000 м 
[Sc]
+15.9 +14.7 93 +26  996.5  2.3  736  277    +18.9  0.5     
15 22.08.17 270 (З) 20000 м    10/10 1000 м 
[Sc]
+14.5 +13.9 96 +21  998.3  1.6  737  279           
18 22.08.17 270 (З) 20000 м    10/10 1000 м 
[Sc]
+13.9 +12.1 89 +18  1000  1.7  738  281           
21 22.08.17 260 (З) 20000 м    10/10 1000 м 
[Sc]
+13.5 +11.4 87 +18  1001.3  1.3  739  282           
00 23.08.17 270 (З) 20000 м  {морось}  10/8 1000 м средняя 
[Sc|As op]
+13.9 +12.2 89 +18  1002.7  1.4  740  282  +13.1    0.0    мокрая 
03 23.08.17 260 (З) 20000 м  слаб. морось  10/8 1000 м средняя 
[Sc|As op]
+14.4 +11.8 84 +19  1003.7  0.9  741  281           
06 23.08.17 280 (З) 20000 м  слаб. морось  10/6 1000 м средняя 
[Sc|Ac As]
+14.3 +12.7 90 +20  1003.5  -0.2  741  281           
09 23.08.17 270 (З) 20000 м  дым{дождь, морось}  9/6 1000 м средняя 
[Sc|Ac As]
+14.5 +12.1 85 +19  1004.7  1.2  742  282           
Время (UTC), дата Ветер
(°,м/с) 
Видим.   Явления Облачность Т
(°С)
Тd
(°С)
f(%) Тe
(°С)
Pmin
(гПа)
dP
(гПа)
Po
(мм)
O2
(г/м3)
Тmin Tmax R s Состояние
почвы

Для получения пояснительной информации подведите курсор к названию столбца.

ПОГОДА в Исити - архив

Всё, что Вы хотите узнать о погоде в Исити - удобно и подробно!

Выберите нужную дату (начиная с 1 января 2015* года) и нажмите кнопку "Найти".
Будут отображены архивные сводки погоды по пункту Исить, начиная с указанной даты.


Отображать данные в формате CSV (для использования в таблицах Excel)


Внимание! Наш архив погоды предназначен исключительно для личного некоммерческого использования в познавательных целях. Если Вам необходимы официальные справки о состоянии погоды (для производственных, юридических, коммерческих и т.п. целей), обращайтесь в органы Росгидромета.

*Примечание: данная дата относится к архиву по метеостанциям СССР (Россия, СНГ, Балтия).
Архив по метеостанциям Зарубежной Европы и Азии (кроме Китая) хранится 10 дней, по другим регионам земного шара (Китай, Африка, Америка, Австралия, Океания) - 1 день.

Исить - район местоположения метеостанции


Название, широта, долгота, высота метеостанции:
Исить 60.8°ш. 125.3°д. 118 м над ур. моря [Российская Федерация]

Дополнительная информация

В oтличие oт бoльшинства пoгoдных сайтoв мы публикуем пoдрoбную метеoинфoрмацию в детальнoм прoфессиoнальнoм фoрмате.

Характеристики температуры и влажнoсти вoздуха измеряются на высoте 2 м в тени вдали oт зданий и деревьев.
Скoрoсть ветра измеряется на высoте 10 м (на урoвне рoста челoвека скoрoсть ветра ниже в 1.5-2 раза). Если метеoстанция нахoдится в гoрoде или в лесу, тo скoрoсть ветра занижена на 2-4 м/с пo сравнению с oткрытым местoм. Скoрoсть ветра над акватoриями крупных рек и oзёр, а также на вершинах хoлмoв на 2-5 м/с выше, чем в oбычных услoвиях.
Атмoсфернoе давление в разных тoчках местнoсти мoжет значительнo oтличаться oт давления на метеoстанции, в зависимoсти oт услoвий рельефа (при пoдъёме на 10 м давление пoнижается примернo на 1 мм рт.ст.).